Probability
0 0 0 0 0 0 0 0 0 0 1 3 6 9 11 11 9 9 9 10 11 13 16 18 18 19 22 24 23 21 19 19 19 20 21 22 22 19 16 15 13 12 12 12
0 0 0 0 0 0 0 0 1 1 3 5 7 10 11 10 10 10 10 10 11 12 14 16 17 20 25 27 25 24 24 24 23 23 23 22 21 18 15 13 12 12 12 11
0 0 0 0 0 0 1 1 2 3 4 6 8 9 10 10 10 11 11 11 12 11 11 12 15 19 24 26 26 25 26 27 27 26 25 23 20 17 15 13 12 12 11 10
0 0 0 0 1 1 1 2 3 5 6 8 10 10 9 9 9 9 9 11 12 12 13 14 15 18 21 22 23 23 23 24 26 26 24 23 21 19 17 16 15 14 12 12
0 0 0 0 1 1 1 3 5 7 9 12 14 13 10 9 8 7 8 9 11 14 17 17 17 19 20 21 20 19 19 21 22 22 20 20 21 20 20 18 18 17 16 16
1 1 1 0 1 1 1 2 4 7 10 14 16 14 10 10 11 10 9 8 10 13 16 17 18 19 19 19 16 14 14 17 18 18 17 17 17 17 17 17 16 16 16 16
2 2 1 0 0 0 0 1 3 5 8 13 15 13 11 12 15 14 11 10 12 13 13 15 17 18 17 14 11 9 10 13 15 16 15 15 14 13 14 14 13 13 13 12
1 2 1 0 0 0 0 1 2 3 6 11 14 13 12 14 17 16 14 12 12 12 11 11 12 15 14 10 7 7 9 10 12 14 14 14 14 12 13 14 14 13 11 9
0 0 0 0 0 0 0 2 3 4 6 10 13 14 14 15 16 15 13 12 11 10 9 8 8 9 9 7 6 7 8 9 10 11 12 12 12 11 12 14 16 15 13 11
0 1 1 1 1 0 1 3 5 6 8 10 13 14 15 15 15 14 12 11 10 9 8 6 5 4 5 5 6 6 6 7 8 10 12 12 11 10 11 12 13 14 14 14
1 1 2 3 2 1 1 4 6 8 9 10 12 13 14 13 13 12 10 9 9 9 7 4 3 3 3 4 5 5 5 5 7 10 11 11 10 9 8 8 9 11 12 12
1 1 3 4 3 2 2 5 6 8 9 10 10 11 10 10 9 9 8 8 7 7 6 3 3 3 3 3 4 4 4 5 8 9 10 10 9 8 7 6 5 6 6 6
1 2 4 5 5 4 4 5 6 8 9 9 9 7 6 5 6 6 6 6 5 5 3 3 2 2 3 3 3 4 4 4 7 9 10 10 9 7 6 6 4 3 3 2
3 4 5 6 6 6 6 6 6 6 6 6 6 5 4 4 4 4 4 4 3 2 1 1 1 1 1 2 3 3 3 3 5 9 11 10 9 7 6 6 5 4 3 1
4 4 6 6 6 6 6 6 6 5 5 5 5 4 4 3 2 2 2 2 1 0 0 0 0 0 0 1 2 2 2 2 3 7 9 10 9 7 6 6 6 5 4 3
4 5 5 5 5 5 5 6 6 6 6 5 5 5 4 2 1 1 1 1 0 0 0 0 0 0 0 0 1 1 1 0 1 3 5 7 7 5 4 4 4 4 3 3
4 4 3 3 3 3 4 6 6 5 5 4 4 3 2 1 0 0 0 0 0 0 0 0 0 0 0 0 0 0 0 0 0 0 2 3 3 3 3 3 3 3 4 4
5 5 5 4 4 5 5 6 5 4 3 3 2 1 1 0 0 0 0 0 0 0 0 0 0 0 0 0 0 0 0 0 0 0 0 0 0 1 2 3 3 4 4 4
6 7 8 8 8 8 6 5 4 3 2 1 1 0 0 0 0 0 0 0 0 0 0 0 0 0 0 0 0 0 0 0 0 0 0 0 0 1 1 2 3 3 3 3
6 7 8 8 8 6 4 3 1 1 1 0 0 0 0 0 0 0 0 0 0 0 0 0 0 0 0 0 0 0 0 0 0 0 1 1 1 2 1 1 1 1 1 2
4 5 5 5 4 2 1 1 0 0 0 0 0 0 0 0 0 0 0 0 0 0 0 0 0 0 0 0 0 0 0 0 0 0 1 2 3 3 2 0 0 0 0 1
3 3 3 2 1 0 0 0 0 0 0 0 0 0 0 0 0 0 0 0 0 0 0 0 0 0 0 0 0 0 0 0 0 0 1 2 2 2 1 0 0 0 0 0
3 3 2 1 0 0 0 0 0 0 0 0 0 0 0 0 0 0 0 0 0 0 0 0 0 0 0 0 0 0 0 0 0 0 0 1 1 1 0 0 0 0 0 0
3 3 1 0 0 0 0 0 0 0 0 0 0 0 0 0 0 0 0 0 0 0 0 0 0 0 0 0 0 0 0 0 0 0 0 0 0 0 0 0 0 0 0 0
3 2 1 0 0 0 0 0 0 0 0 0 0 0 0 0 0 0 0 0 0 0 0 0 0 0 0 0 0 0 0 0 0 0 0 0 0 0 0 0 0 0 0 0
2 1 0 0 0 0 0 0 0 0 0 0 0 0 0 0 0 0 0 0 0 0 0 0 0 0 0 0 0 0 0 0 0 0 0 0 0 0 0 0 0 0 0 0
1 0 0 0 0 0 0 0 0 0 0 0 0 0 0 0 0 0 0 0 0 0 0 0 0 0 0 0 0 0 0 0 0 0 0 0 0 0 0 0 0 0 0 0
Wind_Speed
4 4 3 3 4 5 6 8 8 8 7 8 6 4 2 1 2 3 2 2 2 2 2 3 4 4 5 5 5 5 5 6 6 4 4 4 4 4 4 4 4 4 4 4
1 2 3 3 4 6 6 5 6 4 7 5 3 2 2 2 4 3 2 3 3 3 3 3 4 4 4 4 4 5 6 6 5 4 4 4 4 4 4 4 3 4 4 4
3 2 1 4 6 7 5 5 7 8 8 3 3 5 6 5 5 5 4 3 3 3 4 4 3 4 4 4 4 5 5 5 4 5 4 4 3 3 4 4 3 4 4 4
2 2 6 8 2 3 4 3 4 4 4 5 5 2 2 3 5 5 4 3 2 2 3 3 2 2 3 3 4 5 5 4 4 4 4 4 4 4 4 3 4 4 4 5
4 3 5 5 2 3 4 4 3 4 4 3 4 3 1 1 3 4 4 4 3 3 3 3 3 4 4 4 3 4 3 3 3 3 3 4 4 4 4 3 4 4 4 5
4 4 7 7 3 2 3 4 3 4 6 6 5 2 4 2 3 3 3 3 3 3 3 4 4 4 5 4 3 3 3 2 2 3 3 3 4 3 2 2 3 3 3 3
4 4 7 5 2 2 4 8 3 5 6 7 5 5 4 3 3 4 4 4 3 3 3 3 3 5 4 3 3 2 1 2 1 2 2 2 2 2 2 2 1 2 2 2
4 4 8 3 2 5 6 2 1 3 3 4 4 3 3 4 4 4 4 4 3 3 2 2 3 4 3 2 1 1 1 1 1 1 1 1 1 2 2 2 2 2 2 2
7 7 5 3 4 4 2 2 2 2 3 4 4 4 3 3 4 3 3 3 2 4 3 2 2 3 3 1 1 2 1 1 1 1 1 1 1 2 1 1 2 2 2 2
2 5 4 3 2 2 1 2 2 3 4 4 4 5 5 4 3 3 2 3 2 3 3 1 1 1 1 1 2 2 2 1 0 0 0 1 1 1 2 2 2 2 2 3
4 4 2 3 2 2 1 2 3 2 3 5 6 5 5 4 4 3 2 2 2 3 3 2 1 1 1 1 2 2 1 1 0 0 1 1 0 1 1 2 2 3 3 3
6 6 4 5 3 2 2 2 3 4 3 3 5 5 5 4 4 4 3 3 3 3 2 1 1 1 1 1 2 2 1 0 0 0 0 0 0 1 2 1 2 2 3 3
6 4 4 3 2 2 2 3 3 5 5 4 3 4 5 4 4 4 4 3 3 3 2 2 2 1 0 1 2 2 1 1 0 0 0 0 0 0 1 2 3 3 3 3
4 2 2 2 2 2 3 3 3 3 3 4 3 4 4 5 4 4 4 3 3 3 2 2 1 0 0 1 2 2 1 0 1 1 1 1 1 1 0 1 2 3 3 4
3 3 3 2 3 3 3 4 5 4 3 3 4 5 5 5 4 3 3 3 3 3 2 2 1 1 1 1 2 1 1 0 0 1 1 1 1 0 0 0 1 2 2 3
0 2 4 4 3 3 4 4 5 4 4 4 4 4 4 4 4 3 3 3 4 3 2 2 1 1 1 1 1 1 0 0 0 0 0 0 0 0 0 0 1 1 2 2
3 3 4 4 3 3 3 4 5 5 4 5 4 4 4 4 4 3 2 2 2 2 2 1 0 1 1 1 1 1 0 0 1 1 0 1 1 1 1 1 1 1 2 2
4 5 6 7 6 5 4 4 4 5 5 5 5 5 4 4 3 2 2 2 3 2 1 0 0 0 1 1 1 0 0 0 0 0 0 0 0 0 0 0 1 1 1 1
3 4 3 4 5 5 5 4 4 4 4 5 5 5 3 3 2 2 2 3 3 1 1 1 1 1 0 1 1 0 0 0 0 1 0 0 1 1 0 0 1 1 1 1
3 4 4 4 3 4 4 4 4 4 4 5 5 5 3 2 2 3 3 2 1 1 1 0 0 0 0 0 0 0 0 0 0 0 0 0 0 0 0 0 1 1 1 1
5 5 5 4 4 3 4 4 5 4 3 4 5 5 4 2 3 3 3 1 2 1 0 1 0 0 1 0 0 1 1 0 0 0 0 0 0 1 1 1 1 1 1 1
4 5 5 4 4 3 3 4 4 4 4 3 4 4 3 3 2 2 1 2 2 1 1 1 1 1 0 0 0 1 1 1 0 0 0 1 1 1 1 1 1 1 1 1
3 4 4 4 4 4 4 4 4 4 4 4 4 4 4 3 3 3 2 2 1 1 1 0 1 0 0 0 1 1 1 1 1 1 1 1 1 1 1 2 1 1 1 1
3 3 3 3 4 4 3 2 2 2 3 3 3 3 3 2 1 1 2 1 0 0 0 0 0 1 1 1 0 0 1 1 1 1 1 1 1 1 1 1 1 1 1 2
3 3 3 4 4 2 2 2 2 2 3 2 2 2 2 2 2 1 1 1 1 1 0 0 0 1 0 0 0 1 1 1 1 1 1 2 2 2 2 1 1 1 1 2
3 3 2 2 2 2 2 2 2 2 2 2 1 1 2 1 2 1 1 1 1 1 1 0 1 1 0 0 1 1 1 1 2 2 2 2 2 2 2 2 2 2 2 2
4 3 2 2 2 2 2 2 2 2 2 2 2 1 2 2 2 1 1 1 1 1 1 0 0 0 0 0 1 1 1 1 1 1 1 1 1 2 2 2 2 2 2 2
Wind_Direction
219 217 188 203 217 194 190 190 191 220 219 240 232 219 216 171 137 116 102 101 114 129 140 145 149 158 166 172 172 167 165 177 192 189 182 180 183 186 190 194 203 206 209 217
257 233 200 228 239 216 213 204 205 211 244 242 205 173 184 174 155 151 153 155 153 136 125 134 144 150 158 168 169 158 169 181 179 172 175 184 193 188 185 196 202 199 207 212
225 259 27 256 231 215 211 206 184 208 225 182 184 195 200 191 173 176 178 175 159 143 146 147 152 148 156 166 159 158 169 171 174 177 183 188 193 195 197 206 205 211 217 216
159 134 220 240 235 191 190 235 214 204 193 189 198 192 197 184 176 176 170 158 144 133 135 139 148 137 129 134 145 154 166 169 170 177 187 187 186 196 205 208 210 219 224 226
142 182 259 283 246 172 180 251 222 184 167 145 122 78 0 203 174 175 165 156 155 152 145 144 140 136 127 126 131 138 153 165 173 177 189 195 201 208 211 211 223 226 226 229
148 170 222 239 239 202 144 258 226 175 169 162 132 147 232 199 158 143 130 128 127 119 116 123 127 128 127 136 139 152 168 171 174 178 189 205 210 213 209 208 231 240 242 240
177 206 248 249 264 102 176 236 215 185 180 171 184 200 183 148 149 144 130 124 119 116 119 128 134 127 126 137 157 178 165 142 161 187 205 216 202 201 201 202 219 249 265 278
167 193 244 260 135 181 220 249 174 170 178 169 161 134 132 139 142 136 125 119 123 122 112 106 113 120 125 151 182 144 144 155 165 189 223 229 203 205 200 191 203 233 257 286
190 214 245 246 222 233 202 202 221 175 169 149 145 149 142 142 142 136 132 130 134 132 113 83 96 129 146 185 156 140 141 166 188 192 213 259 214 204 211 204 205 224 241 262
243 263 272 276 274 280 209 195 189 166 157 147 150 156 146 141 138 132 131 134 131 124 119 119 122 128 168 174 155 142 156 167 168 184 258 313 264 209 205 211 221 229 242 258
254 264 296 298 268 223 122 117 128 134 146 153 145 153 152 146 145 145 142 139 132 132 140 160 154 108 105 122 131 141 154 152 144 151 188 231 280 259 239 240 230 229 241 243
233 231 216 240 239 209 156 170 171 150 138 136 141 146 142 144 147 146 144 134 123 117 127 139 124 103 86 122 136 142 146 149 165 145 181 218 32 360 9 337 321 279 261 256
237 239 233 238 231 232 203 185 174 152 148 145 136 139 141 142 142 134 128 123 125 124 123 120 104 80 51 86 98 119 151 190 210 193 248 248 255 304 337 352 4 356 335 311
230 211 247 235 212 179 145 137 117 108 119 133 138 133 132 131 132 135 139 140 131 117 106 112 118 84 2 87 96 93 96 170 211 225 238 233 228 238 238 320 341 347 347 334
252 209 194 150 106 103 111 120 115 111 112 111 122 125 125 127 133 140 136 135 123 109 104 100 83 357 356 91 108 111 102 296 270 246 233 224 211 207 229 266 303 320 335 344
225 109 123 124 131 131 129 131 131 135 128 118 113 116 126 130 129 127 130 138 136 135 134 115 95 310 38 96 96 97 127 261 315 142 247 220 148 166 223 238 289 309 329 332
144 149 143 144 164 168 162 159 153 151 137 130 131 120 106 105 106 111 127 143 142 141 136 127 156 339 29 81 106 101 87 312 350 22 310 261 222 208 203 206 255 294 307 316
191 189 183 174 172 163 156 154 151 147 148 147 134 120 114 121 133 143 143 120 103 82 59 116 144 68 39 42 85 97 103 323 328 314 255 244 221 198 183 202 254 283 306 322
166 167 169 164 161 158 152 152 152 147 142 134 131 132 131 137 142 128 113 112 115 109 305 324 91 85 47 9 62 122 188 325 336 346 335 358 25 43 64 175 267 276 294 312
134 133 129 124 130 133 138 138 133 128 134 133 129 124 122 130 127 116 105 110 181 210 233 231 84 34 309 293 83 165 208 224 227 1 6 23 19 1 315 266 262 270 287 294
132 126 123 120 113 114 129 135 132 135 139 137 140 148 157 154 136 129 125 149 283 262 179 185 178 252 277 256 138 155 177 173 150 163 257 295 282 267 264 273 278 280 291 303
127 125 125 123 115 108 108 121 130 136 136 137 143 145 139 137 134 129 172 216 241 216 169 182 213 212 238 243 169 166 174 176 186 209 228 239 243 258 268 267 268 277 288 299
115 120 121 121 123 119 106 112 129 139 149 157 156 159 164 174 168 163 219 252 233 202 174 193 165 142 76 111 133 167 182 191 214 228 241 247 248 249 255 262 265 272 283 292
110 112 116 112 107 106 108 118 127 139 150 158 165 165 157 149 152 212 211 231 230 181 185 185 112 52 83 97 109 212 235 241 247 250 258 261 258 254 252 255 263 276 286 292
114 113 113 113 117 125 127 114 100 97 105 113 115 124 133 144 158 191 178 157 125 109 122 183 40 21 82 123 197 259 276 273 268 260 251 254 260 259 260 258 255 259 271 277
110 115 122 136 140 134 123 115 112 109 112 106 90 94 103 109 119 115 104 92 90 86 81 68 77 66 106 249 270 276 283 285 279 275 274 272 272 270 266 263 260 257 261 267
85 87 89 76 69 103 117 120 122 127 138 138 127 119 120 114 108 104 94 86 79 78 62 26 48 120 215 276 280 281 283 286 287 288 288 285 280 272 266 258 260 266 273 276